Location: Beuvrequen
(50.8014°N, 1.6652°E)
Time: 20:38:41
(UTC+00:00)

Meteor 2-10 Rocket - Pass Details

Date: 16 October 2021
Orbit: 733 x 885 km, 81.2° (Epoch: 05 December)

Event Time Altitude Azimuth Distance (km) Brightness Sun altitude
Rises 19:01:27 0° 170° (S) 3,443 6.7 -20.1°
Enters shadow 19:03:43 - 165° (SSE) 2,592 6.0 -20.5°
Exits shadow 19:09:17 44° 95° (E) 1,148 3.9 -21.3°
Maximum altitude 19:09:20 44° 94° (E) 1,148 3.9 -21.3°
Drops below altitude 10° 19:14:31 10° 24° (NNE) 2,422 6.0 -22.1°
Sets 19:16:57 0° 18° (NNE) 3,334 6.8 -22.5°
